Home   Weather   38°57'N, 121°32'E   Past weeks
Flag for China

Past Weather in 38°57'N, 121°32'E, China — Yesterday and Last 2 Weeks

Now
55 °F

Clear.


Feels Like: 50 °F
Forecast: 66 / 55 °F
Wind: 26 mph from West

Location: Dalian Airport

Current Time: May 20, 2019 at 3:17:19 am

Latest Report: May 20, 2019 at 2:30 am


Visibility: 10 mi

Pressure: 29.68 "Hg

Humidity: 55%

Dew Point: 39 °F

Location of 38°57'N, 121°32'ELocation

Past Weather in 38°57'N, 121°32'E — Graph

°F

38°57'N, 121°32'E Temperature Yesterday

Maximum temperature yesterday: 75 °F (at 1:00 pm)
Minimum temperature yesterday: 59 °F (at 11:00 pm)
Average temperature yesterday: 66 °F

High & Low Weather Summary for the Past Weeks

 TemperatureHumidityPressure
High79 °F (May 9, 2:00 pm)94% (May 12, 11:00 pm)30.24 "Hg (May 12, 11:00 pm)
Low43 °F (May 6, 1:30 am)13% (May 6, 2:00 pm)29.65 "Hg (May 19, 2:00 pm)
Average64 °F56%29.88 "Hg
* Reported May 5 2:00 am — May 20 2:00 am, 38°57'N, 121°32'E. Weather by CustomWeather, © 2019

Note: Actual official high and low records may vary slightly from our data, if they occured in-between our weather recording intervals... More about our weather records

Advertising

38°57'N, 121°32'E Weather History for the Previous 24 Hours

Scroll right to see more
 ConditionsComfort  
Time TempWeatherWind HumidityBarometerVisibility
2:00 am
Mon, May 20
55 °FClear.26 mph55%29.68 "Hg10 mi
1:30 am57 °FClear.22 mph51%29.68 "Hg10 mi
1:00 am57 °FClear.29 mph51%29.68 "Hg10 mi
12:30 am59 °FClear.31 mph45%29.68 "Hg10 mi
12:00 am57 °FClear.24 mph51%29.68 "Hg10 mi
11:30 pm
Sun, May 19
59 °FClear.24 mph48%29.68 "Hg10 mi
11:00 pm59 °FClear.24 mph48%29.68 "Hg10 mi
10:30 pm61 °FClear.24 mph45%29.68 "Hg10 mi
10:00 pm61 °FPassing clouds.24 mph45%29.68 "HgN/A
9:30 pm63 °FClear.22 mph39%29.68 "Hg10 mi
9:00 pm64 °FPassing clouds.17 mph37%29.68 "HgN/A
8:30 pm66 °FPassing clouds.20 mph35%29.68 "HgN/A
8:00 pm66 °FPassing clouds.22 mph35%29.68 "HgN/A
7:30 pm68 °FPassing clouds.17 mph35%29.65 "HgN/A
7:00 pm68 °FPartly sunny.13 mph40%29.65 "HgN/A
6:30 pm66 °FPartly sunny.13 mph52%29.65 "HgN/A
6:00 pm66 °FPartly sunny.15 mph64%29.65 "HgN/A
5:30 pm64 °FPartly sunny.10 mph83%29.65 "Hg4 mi
5:00 pm64 °FPartly sunny.13 mph83%29.65 "Hg4 mi
4:30 pm68 °FPartly sunny.15 mph69%29.65 "Hg5 mi
4:00 pm72 °FPartly sunny.13 mph65%29.65 "Hg5 mi
3:30 pm70 °FBroken clouds.15 mph73%29.65 "Hg4 mi
3:00 pm75 °FScattered clouds.10 mph61%29.65 "HgN/A
2:30 pm73 °FScattered clouds.10 mph61%29.65 "HgN/A
2:00 pm75 °FScattered clouds.13 mph61%29.65 "HgN/A
1:30 pm75 °FScattered clouds.10 mph61%29.68 "HgN/A
1:00 pm75 °FScattered clouds.10 mph57%29.68 "HgN/A
12:30 pm73 °FScattered clouds.8 mph65%29.68 "Hg6 mi
12:00 pm70 °FScattered clouds.10 mph73%29.68 "Hg6 mi
11:30 am70 °FBroken clouds.13 mph73%29.71 "Hg6 mi
11:00 am68 °FBroken clouds.8 mph78%29.71 "Hg5 mi
10:30 am64 °FBroken clouds.6 mph88%29.74 "Hg5 mi
10:00 am64 °FBroken clouds.6 mph88%29.74 "Hg5 mi
9:30 am64 °FBroken clouds.8 mph88%29.74 "Hg5 mi
9:00 am64 °FBroken clouds.8 mph88%29.74 "Hg5 mi
8:30 am63 °FBroken clouds.6 mph94%29.77 "Hg5 mi
8:00 am63 °FFog.6 mph94%29.77 "Hg2 mi
7:30 am63 °FLight rain. Fog.10 mph94%29.77 "Hg3 mi
7:00 am63 °FLight rain. Fog.8 mph94%29.77 "Hg3 mi
6:30 am63 °FLight rain. Fog.8 mph94%29.77 "Hg3 mi
6:00 am63 °FBroken clouds.8 mph94%29.77 "HgN/A
5:30 am63 °FBroken clouds.10 mph94%29.77 "HgN/A
5:00 am63 °FBroken clouds.10 mph94%29.77 "HgN/A
4:30 am63 °FPartly cloudy.8 mph94%29.77 "HgN/A
4:00 am63 °FPartly cloudy.8 mph88%29.77 "HgN/A
3:30 am63 °FPartly cloudy.10 mph94%29.80 "HgN/A
3:00 am64 °FPartly cloudy.6 mph88%29.80 "HgN/A
Weather by CustomWeather, © 2019

See weather overview